Location: Newark
(50.0821°N, 8.2414°E)
Time: 00:36:37
(UTC+00:00)

ISS - Pass Details

Date: 30 July 2019
Orbit: 410 x 421 km, 51.6° (Epoch: 24 August)

Event Time Altitude Azimuth Distance (km) Brightness Sun altitude
Rises 20:38:12 0° 287° (WNW) 2,375 1.2 -11.4°
Reaches altitude 10° 20:40:21 10° 283° (WNW) 1,507 -0.1 -11.6°
Maximum altitude 20:43:38 50° 206° (SSW) 539 -3.4 -11.9°
Enters shadow 20:45:35 21° 138° (SE) 990 -2.5 -12.1°
